Weather History for Ft Lauderdale, FL

Change the Weather History Date:

Saturday, June 9, 2012

  Actual Average Record
Temperature  
Mean Temperature 83 °F 83 °F  
Max Temperature 88 °F 89 °F 95 °F (1955)
Min Temperature 78 °F 77 °F 60 °F (1966)
Degree Days  
Heating Degree Days 0 0  
Month to date heating degree days 0 0  
Since 1 June heating degree days 0 0  
Since 1 July heating degree days 65 112  
Cooling Degree Days 18 18  
Month to date cooling degree days 166 159  
Year to date cooling degree days 1671 1577  
Since 1 June cooling degree days 166 159  
Growing Degree Days 32 (Base 50)    
Moisture  
Dew Point 76 °F    
Average Humidity 78    
Maximum Humidity 91    
Minimum Humidity 65    
Precipitation  
Precipitation T in 0.36 in 6.85 in (1966)
Month to date precipitation 2.76 2.95  
Year to date precipitation 18.99 20.44  
Snow  
Snow 0.00 in - - ()
Month to date snowfall 0.0  
Since 1 June snowfall 0.0  
Since 1 July snowfall 0.0  
Snow Depth 0.00 in    
Sea Level Pressure  
Sea Level Pressure 29.98 in    
Wind  
Wind Speed 7 mph (ESE)    
Max Wind Speed 16 mph    
Max Gust Speed 20 mph    
Visibility 10 miles    
Events      
T = Trace of Precipitation, MM = Missing Value Source: NWS Daily Summary

Daily Weather History Graph

Daily Weather History Graph

Search for Another Location

Airport:

Trip Planner

Search our weather history database for the weather conditions in past years. The results will help you decide how hot, cold, wet, or windy it might be!

Date:

Astronomy

Jun. 09, 2012 Rise Set
Actual Time 6:27 AM EDT 8:12 PM EDT
Civil Twilight 6:01 AM EDT 8:38 PM EDT
Nautical Twilight 5:30 AM EDT 9:09 PM EDT
Astronomical Twilight 4:57 AM EDT 9:42 PM EDT
Moon No Moon Rise 11:46 AM EDT (6/9)
Length of Visible Light 14h 36m
Length of Day
13h 44m
Waning Gibbous, 68% of the Moon is Illuminated
Jun 9
Waning Gibbous
Jun 11
Last Quarter
Jun 19
New
Jun 26
First Quarter
Jul 3
Full

Hourly Weather History & Observations

Time (EDT) Temp. Heat Index Dew Point Humidity Pressure Visibility Wind Dir Wind Speed Gust Speed Precip Events Conditions
12:53 AM 79.0 °F - 73.9 °F 84% 29.99 in 10.0 mi Calm Calm - N/A   Clear
1:53 AM 79.0 °F - 73.9 °F 84% 29.97 in 10.0 mi ESE 3.5 mph - N/A   Partly Cloudy
2:53 AM 80.1 °F 84.5 °F 73.9 °F 81% 29.97 in 10.0 mi Calm Calm - N/A   Scattered Clouds
3:53 AM 79.0 °F - 75.0 °F 88% 29.99 in 10.0 mi SSW 3.5 mph - 0.00 in   Mostly Cloudy
4:53 AM 80.1 °F 84.5 °F 73.9 °F 81% 29.98 in 10.0 mi Calm Calm - N/A   Partly Cloudy
5:53 AM 79.0 °F - 75.0 °F 88% 29.94 in 10.0 mi East 8.1 mph - 0.00 in   Partly Cloudy
6:53 AM 79.0 °F - 75.9 °F 90% 29.95 in 10.0 mi Calm Calm - 0.00 in   Mostly Cloudy
7:06 AM 78.8 °F - 75.2 °F 89% 29.95 in 10.0 mi Calm Calm - N/A   Mostly Cloudy
7:53 AM 80.1 °F 85.4 °F 75.9 °F 87% 29.97 in 10.0 mi Calm Calm - N/A   Partly Cloudy
8:53 AM 82.0 °F 88.6 °F 75.0 °F 79% 29.99 in 10.0 mi ESE 4.6 mph - N/A   Partly Cloudy
9:05 AM 82.4 °F 89.5 °F 75.2 °F 79% 29.99 in 10.0 mi ESE 5.8 mph - N/A   Mostly Cloudy
9:53 AM 84.0 °F 91.9 °F 75.0 °F 74% 30.01 in 10.0 mi SE 5.8 mph - N/A   Mostly Cloudy
10:21 AM 84.2 °F 92.3 °F 75.2 °F 74% 30.01 in 10.0 mi ESE 6.9 mph - N/A   Scattered Clouds
10:53 AM 84.9 °F 93.3 °F 75.0 °F 72% 30.01 in 10.0 mi ESE 9.2 mph - N/A   Scattered Clouds
11:53 AM 86.0 °F 96.0 °F 75.9 °F 72% 30.01 in 10.0 mi SE 10.4 mph - N/A   Scattered Clouds
12:53 PM 86.0 °F 96.0 °F 75.9 °F 72% 30.00 in 10.0 mi East 10.4 mph - N/A   Scattered Clouds
1:53 PM 87.1 °F 97.3 °F 75.9 °F 69% 29.99 in 10.0 mi East 12.7 mph 16.1 mph N/A   Scattered Clouds
2:53 PM 86.0 °F 95.1 °F 75.0 °F 70% 29.97 in 10.0 mi SE 12.7 mph - N/A   Partly Cloudy
3:53 PM 86.0 °F 93.8 °F 73.9 °F 67% 29.96 in 10.0 mi SE 12.7 mph - N/A   Partly Cloudy
4:48 PM 86.0 °F 96.9 °F 77.0 °F 74% 29.96 in 10.0 mi ESE 11.5 mph - N/A   Mostly Cloudy
4:53 PM 86.0 °F 96.0 °F 75.9 °F 72% 29.95 in 10.0 mi ESE 13.8 mph - N/A   Mostly Cloudy
5:42 PM 84.2 °F 92.3 °F 75.2 °F 74% 29.96 in 10.0 mi ESE 10.4 mph - N/A   Scattered Clouds
5:53 PM 84.0 °F 93.7 °F 77.0 °F 79% 29.97 in 10.0 mi ESE 11.5 mph - N/A   Scattered Clouds
6:53 PM 84.0 °F 92.6 °F 75.9 °F 76% 29.97 in 10.0 mi East 10.4 mph - N/A   Partly Cloudy
7:53 PM 84.0 °F 93.7 °F 77.0 °F 79% 29.98 in 10.0 mi East 9.2 mph - N/A   Partly Cloudy
8:53 PM 82.9 °F 91.8 °F 77.0 °F 82% 29.99 in 10.0 mi ESE 6.9 mph - N/A   Partly Cloudy
9:53 PM 82.9 °F 91.8 °F 77.0 °F 82% 30.01 in 10.0 mi ESE 6.9 mph - N/A   Partly Cloudy
10:53 PM 82.9 °F 91.8 °F 77.0 °F 82% 30.03 in 10.0 mi ESE 9.2 mph - N/A   Partly Cloudy
11:53 PM 82.9 °F 91.8 °F 77.0 °F 82% 30.04 in 10.0 mi ESE 5.8 mph - N/A   Scattered Clouds